Weather History for Anaktuvuk Pass, AK

Change the Weather History Date:

Friday, March 8, 2013

  Actual Average Record
Temperature  
Mean Temperature 20 °F -  
Max Temperature 24 °F 0 °F 24 °F (2013)
Min Temperature 14 °F -12 °F -32 °F (1997)
Degree Days  
Heating Degree Days 46    
Moisture  
Dew Point 9 °F    
Average Humidity 64    
Maximum Humidity 68    
Minimum Humidity 58    
Precipitation  
Precipitation 0.00 in - - ()
Sea Level Pressure  
Sea Level Pressure 29.47 in    
Wind  
Wind Speed 9 mph (SSW)    
Max Wind Speed 20 mph    
Max Gust Speed 25 mph    
Visibility 10 miles    
Events      
Averages and records for this station are not official NWS values.
T = Trace of Precipitation, MM = Missing Value Source: NWS Daily Summary

Daily Weather History Graph

Daily Weather History Graph

Search for Another Location

Airport:

Trip Planner

Search our weather history database for the weather conditions in past years. The results will help you decide how hot, cold, wet, or windy it might be!

Date:

Astronomy

Mar. 08, 2013 Rise Set
Actual Time 7:55 AM AKST 6:41 PM AKST
Civil Twilight 6:59 AM AKST 7:37 PM AKST
Nautical Twilight 5:54 AM AKST 8:43 PM AKST
Astronomical Twilight 4:41 AM AKST 9:56 PM AKST
Moon 7:04 AM AKST (3/8) 2:39 PM AKST (3/8)
Length of Visible Light 12h 38m
Length of Day
10h 46m
Waning Crescent, 11% of the Moon is Illuminated
Mar 8
Waning Crescent
Mar 11
New
Mar 19
First Quarter
Mar 27
Full
Apr 2
Last Quarter

Hourly Weather History & Observations

Time (AKST) Temp. Windchill Dew Point Humidity Pressure Visibility Wind Dir Wind Speed Gust Speed Precip Events Conditions
12:16 AM 19.4 °F - 10.4 °F 68% 29.44 in 10.0 mi Calm Calm - N/A   Partly Cloudy
12:36 AM 21.2 °F - 12.2 °F 68% 29.44 in 10.0 mi Calm Calm - N/A   Mostly Cloudy
12:56 AM 21.2 °F - 10.4 °F 63% 29.44 in 10.0 mi Calm Calm - N/A   Partly Cloudy
1:16 AM 21.2 °F - 10.4 °F 63% 29.43 in 10.0 mi Calm Calm - N/A   Partly Cloudy
1:36 AM 19.4 °F - 10.4 °F 68% 29.42 in 10.0 mi Calm Calm - N/A   Clear
1:56 AM 21.2 °F - 10.4 °F 63% 29.43 in 10.0 mi Calm Calm - N/A   Mostly Cloudy
2:16 AM 19.4 °F 10.4 °F 10.4 °F 68% 29.44 in 10.0 mi South 6.9 mph - N/A   Overcast
2:36 AM 21.2 °F 13.6 °F 12.2 °F 68% 29.44 in 10.0 mi South 5.8 mph - N/A   Overcast
2:56 AM 24.8 °F 14.6 °F 12.2 °F 59% 29.44 in 10.0 mi South 10.4 mph - N/A   Overcast
3:16 AM 21.2 °F - 10.4 °F 63% 29.44 in 10.0 mi Calm Calm - N/A   Mostly Cloudy
3:36 AM 23.0 °F 10.1 °F 12.2 °F 63% 29.44 in 10.0 mi SW 15.0 mph - N/A   Mostly Cloudy
3:56 AM 21.2 °F 7.8 °F 12.2 °F 68% 29.44 in 10.0 mi South 15.0 mph 18.4 mph N/A   Partly Cloudy
4:16 AM 21.2 °F 8.9 °F 12.2 °F 68% 29.44 in 10.0 mi SW 12.7 mph 16.1 mph N/A   Clear
4:36 AM 21.2 °F 8.3 °F 12.2 °F 68% 29.44 in 10.0 mi SW 13.8 mph - N/A   Partly Cloudy
4:56 AM 23.0 °F 10.6 °F 12.2 °F 63% 29.43 in 10.0 mi SW 13.8 mph - N/A   Clear
5:16 AM 23.0 °F 13.9 °F 12.2 °F 63% 29.44 in 10.0 mi SW 8.1 mph 19.6 mph N/A   Partly Cloudy
5:36 AM 23.0 °F 10.1 °F 12.2 °F 63% 29.44 in 10.0 mi SSW 15.0 mph 21.9 mph N/A   Mostly Cloudy
5:56 AM 23.0 °F 12.4 °F 10.4 °F 59% 29.44 in 10.0 mi SSW 10.4 mph 21.9 mph N/A   Scattered Clouds
6:16 AM 23.0 °F 11.7 °F 12.2 °F 63% 29.44 in 10.0 mi SSW 11.5 mph - N/A   Clear
6:36 AM 23.0 °F 10.1 °F 12.2 °F 63% 29.44 in 10.0 mi SSW 15.0 mph - N/A   Clear
6:56 AM 23.0 °F 10.1 °F 10.4 °F 59% 29.44 in 10.0 mi SSW 15.0 mph 19.6 mph N/A   Clear
7:16 AM 23.0 °F 10.6 °F 10.4 °F 59% 29.44 in 10.0 mi SSW 13.8 mph - N/A   Clear
7:36 AM 21.2 °F 8.3 °F 10.4 °F 63% 29.44 in 10.0 mi SW 13.8 mph - N/A   Clear
7:56 AM 21.2 °F 8.3 °F 10.4 °F 63% 29.45 in 10.0 mi WSW 13.8 mph - N/A   Clear
8:16 AM 21.2 °F 7.8 °F 10.4 °F 63% 29.45 in 10.0 mi SW 15.0 mph 19.6 mph N/A   Clear
8:36 AM 21.2 °F 7.8 °F 8.6 °F 58% 29.46 in 10.0 mi WSW 15.0 mph - N/A   Clear
8:56 AM 21.2 °F 8.3 °F 8.6 °F 58% 29.46 in 10.0 mi WSW 13.8 mph - N/A   Clear
9:16 AM 19.4 °F 6.6 °F 8.6 °F 63% 29.47 in 10.0 mi WSW 12.7 mph - N/A   Clear
9:36 AM 19.4 °F 5.0 °F 8.6 °F 63% 29.46 in 10.0 mi WSW 16.1 mph - N/A   Clear
9:56 AM 19.4 °F 5.5 °F 8.6 °F 63% 29.47 in 10.0 mi WSW 15.0 mph - N/A   Clear
10:16 AM 19.4 °F 5.0 °F 8.6 °F 63% 29.47 in 10.0 mi SW 16.1 mph - N/A   Clear
10:36 AM 19.4 °F 6.0 °F 8.6 °F 63% 29.47 in 10.0 mi WSW 13.8 mph 18.4 mph N/A   Clear
10:56 AM 19.4 °F 6.6 °F 8.6 °F 63% 29.47 in 10.0 mi WSW 12.7 mph - N/A   Clear
11:16 AM 21.2 °F 10.1 °F 8.6 °F 58% 29.48 in 10.0 mi SW 10.4 mph - N/A   Clear
11:36 AM 21.2 °F 10.9 °F 10.4 °F 63% 29.48 in 10.0 mi South 9.2 mph - N/A   Clear
11:56 AM 19.4 °F 8.6 °F 8.6 °F 63% 29.47 in 10.0 mi SSW 9.2 mph - N/A   Clear
12:16 PM 21.2 °F 11.7 °F 10.4 °F 63% 29.47 in 10.0 mi SSW 8.1 mph - N/A   Clear
12:36 PM 21.2 °F 13.6 °F 10.4 °F 63% 29.48 in 10.0 mi South 5.8 mph - N/A   Clear
12:56 PM 19.4 °F 7.2 °F 8.6 °F 63% 29.48 in 10.0 mi South 11.5 mph - N/A   Clear
1:16 PM 19.4 °F 6.0 °F 8.6 °F 63% 29.48 in 10.0 mi South 13.8 mph - N/A   Clear
1:36 PM 19.4 °F 6.6 °F 10.4 °F 68% 29.48 in 10.0 mi South 12.7 mph - N/A   Clear
1:56 PM 19.4 °F 7.2 °F 8.6 °F 63% 29.48 in 10.0 mi South 11.5 mph - N/A   Clear
2:16 PM 21.2 °F 8.9 °F 10.4 °F 63% 29.48 in 10.0 mi SW 12.7 mph 17.3 mph N/A   Clear
2:36 PM 21.2 °F 8.9 °F 8.6 °F 58% 29.48 in 10.0 mi South 12.7 mph - N/A   Clear
2:56 PM 19.4 °F 9.5 °F 8.6 °F 63% 29.48 in 10.0 mi SSE 8.1 mph - N/A   Clear
3:16 PM 21.2 °F 8.9 °F 10.4 °F 63% 29.48 in 10.0 mi South 12.7 mph 17.3 mph N/A   Clear
3:36 PM 21.2 °F 10.9 °F 10.4 °F 63% 29.48 in 9.0 mi South 9.2 mph - N/A   Clear
3:56 PM 21.2 °F 8.9 °F 10.4 °F 63% 29.48 in 10.0 mi South 12.7 mph - N/A   Clear
4:16 PM 21.2 °F 10.9 °F 10.4 °F 63% 29.47 in 10.0 mi SSW 9.2 mph - N/A   Clear
4:36 PM 21.2 °F 8.9 °F 10.4 °F 63% 29.47 in 10.0 mi SW 12.7 mph - N/A   Clear
4:56 PM 23.0 °F 12.4 °F 10.4 °F 59% 29.47 in 10.0 mi South 10.4 mph - N/A   Clear
5:16 PM 19.4 °F 7.9 °F 8.6 °F 63% 29.47 in 10.0 mi South 10.4 mph - N/A   Clear
5:36 PM 19.4 °F 5.5 °F 8.6 °F 63% 29.47 in 10.0 mi South 15.0 mph - N/A   Clear
5:56 PM 19.4 °F 7.9 °F 8.6 °F 63% 29.47 in 10.0 mi SSW 10.4 mph - N/A   Clear
6:16 PM 19.4 °F 8.6 °F 8.6 °F 63% 29.47 in 10.0 mi South 9.2 mph 16.1 mph N/A   Clear
6:36 PM 17.6 °F 2.2 °F 6.8 °F 63% 29.48 in 10.0 mi SSE 17.3 mph 20.7 mph N/A   Clear
6:56 PM 17.6 °F 3.7 °F 8.6 °F 68% 29.48 in 10.0 mi SSE 13.8 mph - N/A   Clear
7:16 PM 19.4 °F 7.2 °F 8.6 °F 63% 29.49 in 10.0 mi South 11.5 mph - N/A   Clear
7:36 PM 17.6 °F 3.7 °F 6.8 °F 63% 29.49 in 10.0 mi South 13.8 mph - N/A   Clear
7:56 PM 15.8 °F 0.9 °F 6.8 °F 68% 29.49 in 10.0 mi South 15.0 mph - N/A   Clear
8:16 PM 15.8 °F 0.3 °F 6.8 °F 68% 29.49 in 10.0 mi SSE 16.1 mph - N/A   Clear
8:36 PM 17.6 °F 3.7 °F 8.6 °F 68% 29.49 in 10.0 mi South 13.8 mph 23.0 mph N/A   Clear
8:56 PM 17.6 °F 1.7 °F 8.6 °F 68% 29.49 in 10.0 mi South 18.4 mph 23.0 mph N/A   Clear
9:16 PM 17.6 °F 3.2 °F 6.8 °F 63% 29.49 in 10.0 mi SSE 15.0 mph 23.0 mph N/A   Clear
9:36 PM 17.6 °F 1.7 °F 6.8 °F 63% 29.50 in 10.0 mi South 18.4 mph 24.2 mph N/A   Clear
9:56 PM 17.6 °F 3.2 °F 6.8 °F 63% 29.50 in 10.0 mi SSW 15.0 mph 24.2 mph N/A   Clear
10:16 PM 17.6 °F 2.2 °F 6.8 °F 63% 29.50 in 10.0 mi South 17.3 mph - N/A   Clear
10:36 PM 15.8 °F -1.1 °F 6.8 °F 68% 29.50 in 10.0 mi South 19.6 mph - N/A   Clear
10:56 PM 17.6 °F 2.7 °F 6.8 °F 63% 29.51 in 10.0 mi SSW 16.1 mph 20.7 mph N/A   Clear
11:16 PM 17.6 °F 1.3 °F 6.8 °F 63% 29.52 in 10.0 mi South 19.6 mph 25.3 mph N/A   Clear
11:36 PM 15.8 °F 0.9 °F 6.8 °F 68% 29.53 in 10.0 mi South 15.0 mph - N/A   Clear
11:56 PM 14.0 °F -0.2 °F 5.0 °F 67% 29.53 in 10.0 mi South 12.7 mph - N/A   Clear